Time,TemperatureF,DewpointF,PressureIn,WindDirection,WindDirectionDegrees,WindSpeedMPH,WindSpeedGustMPH,Humidity,HourlyPrecipIn,Conditions,Clouds,dailyrainin,SoftwareType,DateUTC
2013-04-06 00:00:00,38.3,20.8,30.09,WNW,296,2.0,4.0,49,0.00,,CLR,0.00,VWS V14.01,2013-04-06 04:00:00,
2013-04-06 00:05:00,38.2,20.7,30.09,WNW,283,1.0,5.0,49,0.00,,CLR,0.00,VWS V14.01,2013-04-06 04:05:00,
2013-04-06 00:10:00,38.2,21.2,30.09,WNW,300,3.0,5.0,50,0.00,,CLR,0.00,VWS V14.01,2013-04-06 04:10:00,
2013-04-06 00:15:00,38.0,21.0,30.09,WNW,291,2.0,5.0,50,0.00,,CLR,0.00,VWS V14.01,2013-04-06 04:15:00,
2013-04-06 00:20:00,37.8,20.8,30.10,NW,316,0.0,5.0,50,0.00,,CLR,0.00,VWS V14.01,2013-04-06 04:20:00,
2013-04-06 00:25:00,37.4,20.9,30.10,WNW,287,2.0,5.0,51,0.00,,CLR,0.00,VWS V14.01,2013-04-06 04:25:00,
2013-04-06 00:30:00,37.3,21.3,30.10,WNW,298,2.0,3.0,52,0.00,,CLR,0.00,VWS V14.01,2013-04-06 04:30:00,
2013-04-06 00:35:00,37.1,21.1,30.10,NW,304,1.0,3.0,52,0.00,,CLR,0.00,VWS V14.01,2013-04-06 04:35:00,
2013-04-06 00:40:00,36.8,21.3,30.10,WNW,300,1.0,3.0,53,0.00,,CLR,0.00,VWS V14.01,2013-04-06 04:40:00,
2013-04-06 00:45:00,36.6,21.1,30.10,WNW,297,1.0,3.0,53,0.00,,CLR,0.00,VWS V14.01,2013-04-06 04:45:00,
2013-04-06 00:50:00,36.3,21.3,30.10,WNW,290,1.0,3.0,54,0.00,,CLR,0.00,VWS V14.01,2013-04-06 04:50:00,
2013-04-06 00:55:00,36.1,21.1,30.10,WNW,300,0.0,3.0,54,0.00,,CLR,0.00,VWS V14.01,2013-04-06 04:55:00,
2013-04-06 01:00:00,35.8,21.2,30.10,WNW,293,0.0,1.0,55,0.00,,CLR,0.00,VWS V14.01,2013-04-06 05:00:00,
2013-04-06 01:05:00,35.6,21.0,30.11,WNW,293,1.0,2.0,55,0.00,,CLR,0.00,VWS V14.01,2013-04-06 05:05:00,
2013-04-06 01:10:00,35.6,21.0,30.11,WNW,298,1.0,4.0,55,0.00,,CLR,0.00,VWS V14.01,2013-04-06 05:10:00,
2013-04-06 01:15:00,35.7,21.1,30.11,WNW,290,1.0,4.0,55,0.00,,CLR,0.00,VWS V14.01,2013-04-06 05:15:00,
2013-04-06 01:20:00,35.6,21.0,30.11,WNW,289,1.0,4.0,55,0.00,,CLR,0.00,VWS V14.01,2013-04-06 05:20:00,
2013-04-06 01:26:00,35.6,21.0,30.11,WNW,285,2.0,4.0,55,0.00,,CLR,0.00,VWS V14.01,2013-04-06 05:26:00,
2013-04-06 01:31:00,36.0,21.4,30.11,West,281,3.0,4.0,55,0.00,,CLR,0.00,VWS V14.01,2013-04-06 05:31:00,
2013-04-06 01:36:00,36.2,21.2,30.12,NW,304,1.0,5.0,54,0.00,,CLR,0.00,VWS V14.01,2013-04-06 05:36:00,
2013-04-06 01:41:00,36.1,21.5,30.12,NNW,329,2.0,5.0,55,0.00,,CLR,0.00,VWS V14.01,2013-04-06 05:41:00,
2013-04-06 01:46:00,36.0,21.4,30.12,WNW,293,1.0,5.0,55,0.00,,CLR,0.00,VWS V14.01,2013-04-06 05:46:00,
2013-04-06 01:51:00,35.9,21.3,30.13,NNE,20,0.0,5.0,55,0.00,,CLR,0.00,VWS V14.01,2013-04-06 05:51:00,
2013-04-06 01:56:00,35.7,21.1,30.13,West,275,1.0,7.0,55,0.00,,CLR,0.00,VWS V14.01,2013-04-06 05:56:00,
2013-04-06 02:01:00,35.8,21.2,30.13,NE,37,1.0,2.0,55,0.00,,CLR,0.00,VWS V14.01,2013-04-06 06:01:00,
2013-04-06 02:06:00,35.9,21.3,30.13,North,11,0.0,3.0,55,0.00,,CLR,0.00,VWS V14.01,2013-04-06 06:06:00,
2013-04-06 02:11:00,35.7,21.6,30.14,NE,40,2.0,6.0,56,0.00,,CLR,0.00,VWS V14.01,2013-04-06 06:11:00,
2013-04-06 02:16:00,35.6,21.5,30.14,NNE,13,4.0,6.0,56,0.00,,CLR,0.00,VWS V14.01,2013-04-06 06:16:00,
2013-04-06 02:21:00,35.4,21.7,30.14,North,360,3.0,6.0,57,0.00,,CLR,0.00,VWS V14.01,2013-04-06 06:21:00,
2013-04-06 02:26:00,35.3,21.6,30.14,North,4,1.0,6.0,57,0.00,,CLR,0.00,VWS V14.01,2013-04-06 06:26:00,
2013-04-06 02:31:00,35.1,21.8,30.15,North,3,1.0,1.0,58,0.00,,CLR,0.00,VWS V14.01,2013-04-06 06:31:00,
2013-04-06 02:36:00,34.8,21.5,30.15,NNE,13,2.0,3.0,58,0.00,,CLR,0.00,VWS V14.01,2013-04-06 06:36:00,
2013-04-06 02:41:00,34.6,21.8,30.15,North,1,3.0,3.0,59,0.00,,CLR,0.00,VWS V14.01,2013-04-06 06:41:00,
2013-04-06 02:46:00,34.7,21.9,30.15,NNE,31,3.0,8.0,59,0.00,,CLR,0.00,VWS V14.01,2013-04-06 06:46:00,
2013-04-06 02:51:00,34.5,21.7,30.15,North,360,2.0,8.0,59,0.00,,CLR,0.00,VWS V14.01,2013-04-06 06:51:00,
2013-04-06 02:56:00,34.4,21.6,30.16,NNE,29,1.0,8.0,59,0.00,,CLR,0.00,VWS V14.01,2013-04-06 06:56:00,
2013-04-06 03:01:00,34.4,22.0,30.16,NNE,24,1.0,2.0,60,0.00,,CLR,0.00,VWS V14.01,2013-04-06 07:01:00,
2013-04-06 03:06:00,34.3,21.5,30.16,NNE,20,1.0,3.0,59,0.00,,CLR,0.00,VWS V14.01,2013-04-06 07:06:00,
2013-04-06 03:11:00,34.0,21.6,30.16,NW,315,2.0,3.0,60,0.00,,CLR,0.00,VWS V14.01,2013-04-06 07:11:00,
2013-04-06 03:16:00,34.0,21.6,30.17,NE,52,4.0,7.0,60,0.00,,CLR,0.00,VWS V14.01,2013-04-06 07:16:00,
2013-04-06 03:21:00,34.2,21.4,30.17,NNW,337,5.0,8.0,59,0.00,,CLR,0.00,VWS V14.01,2013-04-06 07:21:00,
2013-04-06 03:26:00,34.2,21.4,30.17,WNW,294,2.0,8.0,59,0.00,,CLR,0.00,VWS V14.01,2013-04-06 07:26:00,
2013-04-06 03:31:00,34.0,21.2,30.17,North,6,2.0,4.0,59,0.00,,CLR,0.00,VWS V14.01,2013-04-06 07:31:00,
2013-04-06 03:36:00,33.9,21.5,30.18,NE,37,0.0,4.0,60,0.00,,CLR,0.00,VWS V14.01,2013-04-06 07:36:00,
2013-04-06 03:41:00,33.9,21.5,30.18,NE,49,1.0,7.0,60,0.00,,CLR,0.00,VWS V14.01,2013-04-06 07:41:00,
2013-04-06 03:46:00,33.9,21.1,30.18,ENE,68,3.0,8.0,59,0.00,,CLR,0.00,VWS V14.01,2013-04-06 07:46:00,
2013-04-06 03:51:00,33.9,20.7,30.18,WNW,291,5.0,12.0,58,0.00,,CLR,0.00,VWS V14.01,2013-04-06 07:51:00,
2013-04-06 03:56:00,33.9,20.7,30.18,North,4,4.0,12.0,58,0.00,,CLR,0.00,VWS V14.01,2013-04-06 07:56:00,
2013-04-06 04:01:00,33.9,20.7,30.18,NNE,27,1.0,4.0,58,0.00,,CLR,0.00,VWS V14.01,2013-04-06 08:01:00,
2013-04-06 04:06:00,33.8,20.6,30.18,NE,34,1.0,5.0,58,0.00,,CLR,0.00,VWS V14.01,2013-04-06 08:06:00,
2013-04-06 04:11:00,33.6,20.8,30.19,ENE,60,2.0,8.0,59,0.00,,CLR,0.00,VWS V14.01,2013-04-06 08:11:00,
2013-04-06 04:17:00,33.5,20.7,30.19,ENE,60,5.0,11.0,59,0.00,,CLR,0.00,VWS V14.01,2013-04-06 08:17:00,
2013-04-06 04:22:00,33.5,19.9,30.19,NNE,31,4.0,12.0,57,0.00,,CLR,0.00,VWS V14.01,2013-04-06 08:22:00,
2013-04-06 04:27:00,33.4,19.4,30.19,NNE,31,5.0,13.0,56,0.00,,CLR,0.00,VWS V14.01,2013-04-06 08:27:00,
2013-04-06 04:32:00,33.3,18.9,30.19,NNE,24,4.0,11.0,55,0.00,,CLR,0.00,VWS V14.01,2013-04-06 08:32:00,
2013-04-06 04:37:00,33.1,18.7,30.19,NW,325,4.0,11.0,55,0.00,,CLR,0.00,VWS V14.01,2013-04-06 08:37:00,
2013-04-06 04:42:00,32.9,18.9,30.19,NE,35,4.0,11.0,56,0.00,,CLR,0.00,VWS V14.01,2013-04-06 08:42:00,
2013-04-06 04:47:00,32.7,18.8,30.19,NE,37,3.0,11.0,56,0.00,,CLR,0.00,VWS V14.01,2013-04-06 08:47:00,
2013-04-06 04:52:00,32.5,18.6,30.20,NE,40,2.0,11.0,56,0.00,,CLR,0.00,VWS V14.01,2013-04-06 08:52:00,
2013-04-06 04:57:00,32.4,18.5,30.20,North,11,2.0,11.0,56,0.00,,CLR,0.00,VWS V14.01,2013-04-06 08:57:00,
2013-04-06 05:02:00,32.3,18.4,30.21,NW,318,3.0,5.0,56,0.00,,CLR,0.00,VWS V14.01,2013-04-06 09:02:00,
2013-04-06 05:07:00,32.2,17.9,30.21,North,8,5.0,10.0,55,0.00,,CLR,0.00,VWS V14.01,2013-04-06 09:07:00,
2013-04-06 05:12:00,32.0,17.2,30.22,ENE,75,3.0,10.0,54,0.00,,CLR,0.00,VWS V14.01,2013-04-06 09:12:00,
2013-04-06 05:17:00,32.0,17.2,30.22,NE,39,1.0,11.0,54,0.00,,CLR,0.00,VWS V14.01,2013-04-06 09:17:00,
2013-04-06 05:22:00,31.9,17.2,30.22,North,352,5.0,11.0,54,0.00,,CLR,0.00,VWS V14.01,2013-04-06 09:22:00,
2013-04-06 05:27:00,31.7,16.5,30.22,NNE,23,1.0,11.0,53,0.00,,CLR,0.00,VWS V14.01,2013-04-06 09:27:00,
2013-04-06 05:32:00,31.5,16.4,30.22,West,281,4.0,6.0,53,0.00,,CLR,0.00,VWS V14.01,2013-04-06 09:32:00,
2013-04-06 05:37:00,31.4,16.3,30.22,North,352,0.0,6.0,53,0.00,,CLR,0.00,VWS V14.01,2013-04-06 09:37:00,
2013-04-06 05:42:00,31.1,16.4,30.22,North,352,3.0,6.0,54,0.00,,CLR,0.00,VWS V14.01,2013-04-06 09:42:00,
2013-04-06 05:47:00,31.0,15.9,30.22,NNE,27,0.0,6.0,53,0.00,,CLR,0.00,VWS V14.01,2013-04-06 09:47:00,
2013-04-06 05:52:00,30.8,15.7,30.22,WNW,295,2.0,6.0,53,0.00,,CLR,0.00,VWS V14.01,2013-04-06 09:52:00,
2013-04-06 05:57:00,30.8,15.7,30.22,North,352,1.0,6.0,53,0.00,,CLR,0.00,VWS V14.01,2013-04-06 09:57:00,
2013-04-06 06:02:00,30.8,15.7,30.22,NW,308,0.0,3.0,53,0.00,,CLR,0.00,VWS V14.01,2013-04-06 10:02:00,
2013-04-06 06:07:00,30.5,15.9,30.22,NE,41,0.0,3.0,54,0.00,,CLR,0.00,VWS V14.01,2013-04-06 10:07:00,
2013-04-06 06:12:00,30.4,15.8,30.23,NE,49,1.0,3.0,54,0.00,,CLR,0.00,VWS V14.01,2013-04-06 10:12:00,
2013-04-06 06:17:00,30.2,15.6,30.23,NE,49,0.0,3.0,54,0.00,,CLR,0.00,VWS V14.01,2013-04-06 10:17:00,
2013-04-06 06:22:00,30.0,15.8,30.23,NE,49,0.0,3.0,55,0.00,,CLR,0.00,VWS V14.01,2013-04-06 10:22:00,
2013-04-06 06:27:00,29.8,15.6,30.24,WNW,297,0.0,3.0,55,0.00,,CLR,0.00,VWS V14.01,2013-04-06 10:27:00,
2013-04-06 06:32:00,29.9,15.7,30.24,WNW,291,0.0,1.0,55,0.00,,CLR,0.00,VWS V14.01,2013-04-06 10:32:00,
2013-04-06 06:37:00,29.8,15.6,30.24,WNW,290,0.0,1.0,55,0.00,,CLR,0.00,VWS V14.01,2013-04-06 10:37:00,
2013-04-06 06:42:00,29.8,15.6,30.25,WNW,283,0.0,1.0,55,0.00,,CLR,0.00,VWS V14.01,2013-04-06 10:42:00,
2013-04-06 06:47:00,29.6,15.8,30.25,WNW,283,0.0,1.0,56,0.00,,CLR,0.00,VWS V14.01,2013-04-06 10:47:00,
2013-04-06 06:52:00,29.3,16.0,30.25,NW,312,0.0,1.0,57,0.00,,CLR,0.00,VWS V14.01,2013-04-06 10:52:00,
2013-04-06 06:57:00,29.3,16.0,30.26,WNW,300,0.0,2.0,57,0.00,,CLR,0.00,VWS V14.01,2013-04-06 10:57:00,
2013-04-06 07:02:00,29.3,16.0,30.26,NNW,333,1.0,1.0,57,0.00,,CLR,0.00,VWS V14.01,2013-04-06 11:02:00,
2013-04-06 07:07:00,29.6,16.2,30.27,North,1,1.0,2.0,57,0.00,,CLR,0.00,VWS V14.01,2013-04-06 11:07:00,
2013-04-06 07:12:00,29.9,16.5,30.27,North,1,0.0,2.0,57,0.00,,CLR,0.00,VWS V14.01,2013-04-06 11:12:00,
2013-04-06 07:17:00,30.2,16.4,30.27,NNW,333,1.0,2.0,56,0.00,,CLR,0.00,VWS V14.01,2013-04-06 11:17:00,
2013-04-06 07:22:00,30.4,16.6,30.28,WNW,287,1.0,2.0,56,0.00,,CLR,0.00,VWS V14.01,2013-04-06 11:22:00,
2013-04-06 07:27:00,30.8,17.0,30.28,WNW,288,2.0,2.0,56,0.00,,CLR,0.00,VWS V14.01,2013-04-06 11:27:00,
2013-04-06 07:32:00,31.3,16.6,30.28,West,281,1.0,3.0,54,0.00,,CLR,0.00,VWS V14.01,2013-04-06 11:32:00,
2013-04-06 07:33:00,31.3,16.6,30.28,West,280,1.0,3.0,54,0.00,,CLR,0.00,VWS V14.01,2013-04-06 11:33:00,
2013-04-06 07:38:00,31.7,17.0,30.28,WNW,297,3.0,3.0,54,0.00,,CLR,0.00,VWS V14.01,2013-04-06 11:38:00,
2013-04-06 07:43:00,32.0,17.2,30.28,WNW,286,2.0,3.0,54,0.00,,CLR,0.00,VWS V14.01,2013-04-06 11:43:00,
2013-04-06 07:48:00,32.3,17.5,30.29,WNW,291,4.0,5.0,54,0.00,,CLR,0.00,VWS V14.01,2013-04-06 11:48:00,
2013-04-06 07:53:00,32.4,16.8,30.29,West,277,1.0,5.0,52,0.00,,CLR,0.00,VWS V14.01,2013-04-06 11:53:00,
2013-04-06 07:58:00,32.5,16.9,30.29,WNW,293,5.0,5.0,52,0.00,,CLR,0.00,VWS V14.01,2013-04-06 11:58:00,
2013-04-06 08:03:00,32.8,17.1,30.30,North,6,2.0,3.0,52,0.00,,CLR,0.00,VWS V14.01,2013-04-06 12:03:00,
2013-04-06 08:08:00,33.2,17.0,30.30,West,280,3.0,4.0,51,0.00,,CLR,0.00,VWS V14.01,2013-04-06 12:08:00,
2013-04-06 08:13:00,33.5,17.8,30.31,WNW,293,3.0,5.0,52,0.00,,CLR,0.00,VWS V14.01,2013-04-06 12:13:00,
2013-04-06 08:18:00,33.6,17.0,30.31,NE,34,1.0,5.0,50,0.00,,CLR,0.00,VWS V14.01,2013-04-06 12:18:00,
2013-04-06 08:23:00,34.1,17.9,30.31,ESE,105,0.0,5.0,51,0.00,,CLR,0.00,VWS V14.01,2013-04-06 12:23:00,
2013-04-06 08:28:00,34.2,16.6,30.31,NE,45,2.0,5.0,48,0.00,,CLR,0.00,VWS V14.01,2013-04-06 12:28:00,
2013-04-06 08:33:00,34.2,17.0,30.31,East,98,3.0,3.0,49,0.00,,CLR,0.00,VWS V14.01,2013-04-06 12:33:00,
2013-04-06 08:38:00,34.4,16.8,30.31,ESE,110,3.0,4.0,48,0.00,,CLR,0.00,VWS V14.01,2013-04-06 12:38:00,
2013-04-06 08:43:00,34.3,16.2,30.31,ENE,76,3.0,4.0,47,0.00,,CLR,0.00,VWS V14.01,2013-04-06 12:43:00,
2013-04-06 08:48:00,34.7,17.5,30.32,NE,39,5.0,6.0,49,0.00,,CLR,0.00,VWS V14.01,2013-04-06 12:48:00,
2013-04-06 08:53:00,34.5,16.9,30.32,NNE,25,0.0,6.0,48,0.00,,CLR,0.00,VWS V14.01,2013-04-06 12:53:00,
2013-04-06 08:58:00,35.3,17.6,30.32,NNE,31,3.0,6.0,48,0.00,,CLR,0.00,VWS V14.01,2013-04-06 12:58:00,
2013-04-06 09:03:00,35.4,17.7,30.32,ESE,120,0.0,4.0,48,0.00,,CLR,0.00,VWS V14.01,2013-04-06 13:03:00,
2013-04-06 09:08:00,35.9,16.6,30.32,NNW,338,3.0,6.0,45,0.00,,CLR,0.00,VWS V14.01,2013-04-06 13:08:00,
2013-04-06 09:13:00,35.6,16.9,30.32,NE,49,3.0,7.0,46,0.00,,CLR,0.00,VWS V14.01,2013-04-06 13:13:00,
2013-04-06 09:18:00,35.6,16.4,30.33,NE,34,3.0,9.0,45,0.00,,CLR,0.00,VWS V14.01,2013-04-06 13:18:00,
2013-04-06 09:23:00,35.9,16.6,30.33,NE,36,5.0,9.0,45,0.00,,CLR,0.00,VWS V14.01,2013-04-06 13:23:00,
2013-04-06 09:28:00,36.5,16.7,30.33,NE,39,4.0,9.0,44,0.00,,CLR,0.00,VWS V14.01,2013-04-06 13:28:00,
2013-04-06 09:33:00,36.5,16.7,30.33,NNE,29,1.0,4.0,44,0.00,,CLR,0.00,VWS V14.01,2013-04-06 13:33:00,
2013-04-06 09:38:00,36.5,16.1,30.33,East,88,5.0,7.0,43,0.00,,CLR,0.00,VWS V14.01,2013-04-06 13:38:00,
2013-04-06 09:43:00,36.4,16.6,30.33,NE,34,1.0,7.0,44,0.00,,CLR,0.00,VWS V14.01,2013-04-06 13:43:00,
2013-04-06 09:48:00,36.5,15.6,30.33,NNE,30,0.0,9.0,42,0.00,,CLR,0.00,VWS V14.01,2013-04-06 13:48:00,
2013-04-06 09:53:00,36.9,16.0,30.33,NE,42,7.0,9.0,42,0.00,,CLR,0.00,VWS V14.01,2013-04-06 13:53:00,
2013-04-06 09:58:00,37.0,16.1,30.33,North,359,3.0,9.0,42,0.00,,CLR,0.00,VWS V14.01,2013-04-06 13:58:00,
2013-04-06 10:03:00,37.4,15.9,30.33,NNE,21,4.0,9.0,41,0.00,,CLR,0.00,VWS V14.01,2013-04-06 14:03:00,
2013-04-06 10:08:00,37.2,15.7,30.34,North,3,2.0,9.0,41,0.00,,CLR,0.00,VWS V14.01,2013-04-06 14:08:00,
2013-04-06 10:13:00,37.5,15.4,30.34,North,349,1.0,9.0,40,0.00,,CLR,0.00,VWS V14.01,2013-04-06 14:13:00,
2013-04-06 10:18:00,37.8,15.7,30.34,NE,39,3.0,9.0,40,0.00,,CLR,0.00,VWS V14.01,2013-04-06 14:18:00,
2013-04-06 10:23:00,37.7,16.1,30.33,NNE,33,3.0,9.0,41,0.00,,CLR,0.00,VWS V14.01,2013-04-06 14:23:00,
2013-04-06 10:28:00,38.0,16.4,30.34,NE,34,1.0,9.0,41,0.00,,CLR,0.00,VWS V14.01,2013-04-06 14:28:00,
2013-04-06 10:33:00,39.5,17.2,30.34,East,94,2.0,4.0,40,0.00,,CLR,0.00,VWS V14.01,2013-04-06 14:33:00,
2013-04-06 10:38:00,39.3,16.4,30.34,NE,40,2.0,4.0,39,0.00,,CLR,0.00,VWS V14.01,2013-04-06 14:38:00,
2013-04-06 10:43:00,39.9,15.8,30.34,East,80,3.0,6.0,37,0.00,,CLR,0.00,VWS V14.01,2013-04-06 14:43:00,
2013-04-06 10:48:00,39.7,18.0,30.34,ESE,104,4.0,6.0,41,0.00,,CLR,0.00,VWS V14.01,2013-04-06 14:48:00,
2013-04-06 10:53:00,39.6,16.1,30.33,NE,46,0.0,8.0,38,0.00,,CLR,0.00,VWS V14.01,2013-04-06 14:53:00,
2013-04-06 10:58:00,40.3,16.1,30.33,NE,53,4.0,8.0,37,0.00,,CLR,0.00,VWS V14.01,2013-04-06 14:58:00,
2013-04-06 11:03:00,40.7,15.8,30.33,NE,36,1.0,7.0,36,0.00,,CLR,0.00,VWS V14.01,2013-04-06 15:03:00,
2013-04-06 11:08:00,40.8,15.3,30.33,East,95,2.0,7.0,35,0.00,,CLR,0.00,VWS V14.01,2013-04-06 15:08:00,
2013-04-06 11:13:00,41.1,16.8,30.33,ESE,122,0.0,7.0,37,0.00,,CLR,0.00,VWS V14.01,2013-04-06 15:13:00,
2013-04-06 11:18:00,41.4,16.5,30.33,North,11,0.0,7.0,36,0.00,,CLR,0.00,VWS V14.01,2013-04-06 15:18:00,
2013-04-06 11:23:00,42.5,18.1,30.33,NE,44,6.0,7.0,37,0.00,,CLR,0.00,VWS V14.01,2013-04-06 15:23:00,
2013-04-06 11:28:00,41.7,16.1,30.33,East,93,1.0,7.0,35,0.00,,CLR,0.00,VWS V14.01,2013-04-06 15:28:00,
2013-04-06 11:33:00,42.1,17.1,30.33,SSE,148,0.0,3.0,36,0.00,,CLR,0.00,VWS V14.01,2013-04-06 15:33:00,
2013-04-06 11:38:00,42.2,16.5,30.32,SSE,150,1.0,5.0,35,0.00,,CLR,0.00,VWS V14.01,2013-04-06 15:38:00,
2013-04-06 11:43:00,43.5,17.7,30.32,ENE,68,3.0,7.0,35,0.00,,CLR,0.00,VWS V14.01,2013-04-06 15:43:00,
2013-04-06 11:48:00,42.5,14.7,30.32,NNE,32,1.0,8.0,32,0.00,,CLR,0.00,VWS V14.01,2013-04-06 15:48:00,
2013-04-06 11:53:00,42.0,15.0,30.32,NE,49,3.0,8.0,33,0.00,,CLR,0.00,VWS V14.01,2013-04-06 15:53:00,
2013-04-06 11:58:00,42.6,16.2,30.32,NE,50,0.0,8.0,34,0.00,,CLR,0.00,VWS V14.01,2013-04-06 15:58:00,
2013-04-06 12:03:00,43.5,17.0,30.31,East,101,2.0,2.0,34,0.00,,CLR,0.00,VWS V14.01,2013-04-06 16:03:00,
2013-04-06 12:08:00,44.4,17.1,30.32,North,350,4.0,5.0,33,0.00,,CLR,0.00,VWS V14.01,2013-04-06 16:08:00,
2013-04-06 12:13:00,44.2,16.2,30.31,NE,43,4.0,6.0,32,0.00,,CLR,0.00,VWS V14.01,2013-04-06 16:13:00,
2013-04-06 12:18:00,44.3,16.3,30.31,NNE,23,2.0,6.0,32,0.00,,CLR,0.00,VWS V14.01,2013-04-06 16:18:00,
2013-04-06 12:23:00,44.0,15.3,30.31,ENE,72,1.0,6.0,31,0.00,,CLR,0.00,VWS V14.01,2013-04-06 16:23:00,
2013-04-06 12:28:00,44.5,18.6,30.31,SSW,210,2.0,6.0,35,0.00,,CLR,0.00,VWS V14.01,2013-04-06 16:28:00,
2013-04-06 12:33:00,45.2,17.8,30.31,ENE,58,2.0,3.0,33,0.00,,CLR,0.00,VWS V14.01,2013-04-06 16:33:00,
2013-04-06 12:38:00,45.4,17.3,30.30,North,354,1.0,4.0,32,0.00,,CLR,0.00,VWS V14.01,2013-04-06 16:38:00,
2013-04-06 12:43:00,45.9,19.1,30.31,NE,42,2.0,5.0,34,0.00,,CLR,0.00,VWS V14.01,2013-04-06 16:43:00,
2013-04-06 12:48:00,46.4,18.2,30.31,ENE,72,3.0,5.0,32,0.00,,CLR,0.00,VWS V14.01,2013-04-06 16:48:00,
2013-04-06 12:53:00,46.1,16.4,30.30,WSW,238,3.0,5.0,30,0.00,,CLR,0.00,VWS V14.01,2013-04-06 16:53:00,
2013-04-06 12:58:00,45.9,17.0,30.30,SW,228,1.0,10.0,31,0.00,,CLR,0.00,VWS V14.01,2013-04-06 16:58:00,
2013-04-06 13:03:00,46.3,15.8,30.30,SW,231,0.0,5.0,29,0.00,,CLR,0.00,VWS V14.01,2013-04-06 17:03:00,
2013-04-06 13:08:00,45.6,16.0,30.30,West,274,4.0,8.0,30,0.00,,CLR,0.00,VWS V14.01,2013-04-06 17:08:00,
2013-04-06 13:13:00,46.4,17.4,30.30,SW,232,3.0,8.0,31,0.00,,CLR,0.00,VWS V14.01,2013-04-06 17:13:00,
2013-04-06 13:18:00,47.2,18.1,30.29,West,276,2.0,8.0,31,0.00,,CLR,0.00,VWS V14.01,2013-04-06 17:18:00,
2013-04-06 13:23:00,47.3,19.0,30.29,NW,312,3.0,8.0,32,0.00,,CLR,0.00,VWS V14.01,2013-04-06 17:23:00,
2013-04-06 13:28:00,47.0,16.4,30.29,WNW,287,5.0,8.0,29,0.00,,CLR,0.00,VWS V14.01,2013-04-06 17:28:00,
2013-04-06 13:33:00,47.2,15.8,30.29,WNW,302,3.0,6.0,28,0.00,,CLR,0.00,VWS V14.01,2013-04-06 17:33:00,
2013-04-06 13:38:00,47.6,16.9,30.29,West,281,5.0,6.0,29,0.00,,CLR,0.00,VWS V14.01,2013-04-06 17:38:00,
2013-04-06 13:43:00,47.1,16.5,30.28,WSW,253,1.0,8.0,29,0.00,,CLR,0.00,VWS V14.01,2013-04-06 17:43:00,
2013-04-06 13:48:00,48.1,16.5,30.28,WNW,289,0.0,8.0,28,0.00,,CLR,0.00,VWS V14.01,2013-04-06 17:48:00,
2013-04-06 13:53:00,49.1,16.6,30.28,WNW,293,5.0,8.0,27,0.00,,CLR,0.00,VWS V14.01,2013-04-06 17:53:00,
2013-04-06 13:58:00,48.0,14.8,30.28,NNE,33,2.0,8.0,26,0.00,,CLR,0.00,VWS V14.01,2013-04-06 17:58:00,
2013-04-06 14:03:00,48.9,16.4,30.27,East,93,1.0,5.0,27,0.00,,CLR,0.00,VWS V14.01,2013-04-06 18:03:00,
2013-04-06 14:08:00,49.0,17.3,30.27,SW,228,1.0,5.0,28,0.00,,CLR,0.00,VWS V14.01,2013-04-06 18:08:00,
2013-04-06 14:13:00,49.5,14.2,30.27,ESE,113,2.0,5.0,24,0.00,,CLR,0.00,VWS V14.01,2013-04-06 18:13:00,
2013-04-06 14:18:00,50.1,16.6,30.27,NNE,25,0.0,5.0,26,0.00,,CLR,0.00,VWS V14.01,2013-04-06 18:18:00,
2013-04-06 14:23:00,50.0,13.7,30.27,NNE,22,5.0,5.0,23,0.00,,CLR,0.00,VWS V14.01,2013-04-06 18:23:00,
2013-04-06 14:28:00,49.7,15.3,30.26,West,281,3.0,5.0,25,0.00,,CLR,0.00,VWS V14.01,2013-04-06 18:28:00,
2013-04-06 14:33:00,50.2,15.8,30.26,WNW,297,1.0,3.0,25,0.00,,CLR,0.00,VWS V14.01,2013-04-06 18:33:00,
2013-04-06 14:38:00,51.2,15.7,30.26,NNE,18,0.0,3.0,24,0.00,,CLR,0.00,VWS V14.01,2013-04-06 18:38:00,
2013-04-06 14:43:00,51.1,15.6,30.26,WNW,291,2.0,4.0,24,0.00,,CLR,0.00,VWS V14.01,2013-04-06 18:43:00,
2013-04-06 14:48:00,51.8,15.2,30.26,NNE,27,2.0,7.0,23,0.00,,CLR,0.00,VWS V14.01,2013-04-06 18:48:00,
2013-04-06 14:53:00,51.0,13.5,30.25,NE,39,3.0,7.0,22,0.00,,CLR,0.00,VWS V14.01,2013-04-06 18:53:00,
2013-04-06 14:58:00,51.0,14.5,30.25,ENE,75,1.0,7.0,23,0.00,,CLR,0.00,VWS V14.01,2013-04-06 18:58:00,
2013-04-06 15:03:00,50.9,12.4,30.25,SSE,155,3.0,5.0,21,0.00,,CLR,0.00,VWS V14.01,2013-04-06 19:03:00,
2013-04-06 15:08:00,51.2,13.7,30.24,SSE,153,1.0,5.0,22,0.00,,CLR,0.00,VWS V14.01,2013-04-06 19:08:00,
2013-04-06 15:13:00,51.8,13.1,30.24,NE,42,2.0,5.0,21,0.00,,CLR,0.00,VWS V14.01,2013-04-06 19:13:00,
2013-04-06 15:18:00,51.5,13.9,30.24,NE,54,2.0,6.0,22,0.00,,CLR,0.00,VWS V14.01,2013-04-06 19:18:00,
2013-04-06 15:23:00,51.6,13.0,30.23,ENE,57,3.0,6.0,21,0.00,,CLR,0.00,VWS V14.01,2013-04-06 19:23:00,
2013-04-06 15:28:00,51.0,14.5,30.23,NE,37,1.0,6.0,23,0.00,,CLR,0.00,VWS V14.01,2013-04-06 19:28:00,
2013-04-06 15:33:00,51.0,13.5,30.23,East,98,4.0,6.0,22,0.00,,CLR,0.00,VWS V14.01,2013-04-06 19:33:00,
2013-04-06 15:38:00,51.3,12.7,30.23,ENE,60,3.0,7.0,21,0.00,,CLR,0.00,VWS V14.01,2013-04-06 19:38:00,
2013-04-06 15:43:00,51.5,14.9,30.23,NNW,340,2.0,7.0,23,0.00,,CLR,0.00,VWS V14.01,2013-04-06 19:43:00,
2013-04-06 15:48:00,51.7,13.0,30.22,East,101,2.0,7.0,21,0.00,,CLR,0.00,VWS V14.01,2013-04-06 19:48:00,
2013-04-06 15:53:00,51.2,14.7,30.22,North,357,1.0,8.0,23,0.00,,CLR,0.00,VWS V14.01,2013-04-06 19:53:00,
2013-04-06 15:58:00,52.4,16.7,30.22,NNW,342,5.0,8.0,24,0.00,,CLR,0.00,VWS V14.01,2013-04-06 19:58:00,
2013-04-06 16:03:00,52.0,14.4,30.22,ESE,123,0.0,5.0,22,0.00,,CLR,0.00,VWS V14.01,2013-04-06 20:03:00,
2013-04-06 16:08:00,52.9,15.1,30.22,East,82,4.0,5.0,22,0.00,,CLR,0.00,VWS V14.01,2013-04-06 20:08:00,
2013-04-06 16:13:00,52.4,16.7,30.21,East,83,0.0,5.0,24,0.00,,CLR,0.00,VWS V14.01,2013-04-06 20:13:00,
2013-04-06 16:18:00,54.2,16.2,30.21,East,97,1.0,5.0,22,0.00,,CLR,0.00,VWS V14.01,2013-04-06 20:18:00,
2013-04-06 16:23:00,53.7,15.8,30.20,WSW,256,1.0,6.0,22,0.00,,CLR,0.00,VWS V14.01,2013-04-06 20:23:00,
2013-04-06 16:28:00,54.0,15.0,30.20,ESE,105,2.0,6.0,21,0.00,,CLR,0.00,VWS V14.01,2013-04-06 20:28:00,
2013-04-06 16:33:00,53.4,16.5,30.20,WSW,253,0.0,4.0,23,0.00,,CLR,0.00,VWS V14.01,2013-04-06 20:33:00,
2013-04-06 16:38:00,53.5,17.6,30.20,ENE,74,2.0,5.0,24,0.00,,CLR,0.00,VWS V14.01,2013-04-06 20:38:00,
2013-04-06 16:43:00,53.8,14.8,30.20,SW,226,5.0,6.0,21,0.00,,CLR,0.00,VWS V14.01,2013-04-06 20:43:00,
2013-04-06 16:48:00,53.8,15.9,30.20,SSE,151,2.0,9.0,22,0.00,,CLR,0.00,VWS V14.01,2013-04-06 20:48:00,
2013-04-06 16:53:00,54.2,16.2,30.20,ESE,115,2.0,9.0,22,0.00,,CLR,0.00,VWS V14.01,2013-04-06 20:53:00,
2013-04-06 16:58:00,53.8,16.9,30.20,South,172,1.0,9.0,23,0.00,,CLR,0.00,VWS V14.01,2013-04-06 20:58:00,
2013-04-06 17:03:00,54.2,17.2,30.20,West,271,2.0,7.0,23,0.00,,SCT250,0.00,VWS V14.01,2013-04-06 21:03:00,
2013-04-06 17:08:00,54.2,17.2,30.20,East,86,2.0,7.0,23,0.00,,SCT250,0.00,VWS V14.01,2013-04-06 21:08:00,
2013-04-06 17:13:00,53.9,15.9,30.20,SSW,201,1.0,8.0,22,0.00,,SCT250,0.00,VWS V14.01,2013-04-06 21:13:00,
2013-04-06 17:18:00,53.7,16.8,30.21,East,86,3.0,9.0,23,0.00,,SCT250,0.00,VWS V14.01,2013-04-06 21:18:00,
2013-04-06 17:24:00,53.4,17.5,30.21,WSW,240,5.0,9.0,24,0.00,,SCT250,0.00,VWS V14.01,2013-04-06 21:24:00,
2013-04-06 17:29:00,53.1,17.3,30.21,SSW,201,4.0,10.0,24,0.00,,SCT250,0.00,VWS V14.01,2013-04-06 21:29:00,
2013-04-06 17:34:00,53.0,17.2,30.21,WSW,238,5.0,8.0,24,0.00,,SCT250,0.00,VWS V14.01,2013-04-06 21:34:00,
2013-04-06 17:39:00,52.9,16.1,30.21,West,260,1.0,8.0,23,0.00,,SCT250,0.00,VWS V14.01,2013-04-06 21:39:00,
2013-04-06 17:44:00,52.9,16.1,30.21,SSW,200,0.0,8.0,23,0.00,,SCT250,0.00,VWS V14.01,2013-04-06 21:44:00,
2013-04-06 17:49:00,53.0,17.2,30.21,SW,219,4.0,8.0,24,0.00,,SCT250,0.00,VWS V14.01,2013-04-06 21:49:00,
2013-04-06 17:54:00,53.0,18.1,30.21,SW,219,0.0,9.0,25,0.00,,SCT250,0.00,VWS V14.01,2013-04-06 21:54:00,
2013-04-06 17:59:00,52.9,16.1,30.21,ENE,74,2.0,9.0,23,0.00,,SCT250,0.00,VWS V14.01,2013-04-06 21:59:00,
2013-04-06 18:04:00,52.6,16.9,30.21,East,101,4.0,5.0,24,0.00,,SCT250,0.00,VWS V14.01,2013-04-06 22:04:00,
2013-04-06 18:09:00,52.3,15.6,30.21,West,278,2.0,7.0,23,0.00,,SCT250,0.00,VWS V14.01,2013-04-06 22:09:00,
2013-04-06 18:14:00,52.2,15.5,30.20,East,95,5.0,8.0,23,0.00,,SCT250,0.00,VWS V14.01,2013-04-06 22:14:00,
2013-04-06 18:19:00,52.1,15.4,30.21,East,98,2.0,9.0,23,0.00,,SCT250,0.00,VWS V14.01,2013-04-06 22:19:00,
2013-04-06 18:24:00,52.0,16.4,30.21,ENE,58,2.0,9.0,24,0.00,,SCT250,0.00,VWS V14.01,2013-04-06 22:24:00,
2013-04-06 18:30:00,51.9,15.3,30.21,SSE,150,7.0,9.0,23,0.00,,SCT250,0.00,VWS V14.01,2013-04-06 22:30:00,
2013-04-06 18:35:00,51.8,16.2,30.21,WSW,240,4.0,10.0,24,0.00,,SCT250,0.00,VWS V14.01,2013-04-06 22:35:00,
2013-04-06 18:40:00,52.0,16.4,30.21,West,266,0.0,10.0,24,0.00,,SCT250,0.00,VWS V14.01,2013-04-06 22:40:00,
2013-04-06 18:45:00,51.7,15.1,30.21,WSW,250,2.0,10.0,23,0.00,,SCT250,0.00,VWS V14.01,2013-04-06 22:45:00,
2013-04-06 18:50:00,51.4,14.9,30.21,SW,228,2.0,10.0,23,0.00,,SCT250,0.00,VWS V14.01,2013-04-06 22:50:00,
2013-04-06 18:55:00,51.3,15.8,30.21,SW,231,0.0,10.0,24,0.00,,SCT250,0.00,VWS V14.01,2013-04-06 22:55:00,
2013-04-06 19:00:00,51.3,15.8,30.21,East,101,2.0,10.0,24,0.00,,CLR,0.00,VWS V14.01,2013-04-06 23:00:00,
2013-04-06 19:05:00,51.0,16.4,30.21,SW,219,4.0,5.0,25,0.00,,CLR,0.00,VWS V14.01,2013-04-06 23:05:00,
2013-04-06 19:10:00,50.8,17.2,30.21,South,177,1.0,8.0,26,0.00,,CLR,0.00,VWS V14.01,2013-04-06 23:10:00,
2013-04-06 19:15:00,50.5,16.0,30.21,SW,221,6.0,9.0,25,0.00,,CLR,0.00,VWS V14.01,2013-04-06 23:15:00,
2013-04-06 19:20:00,50.3,15.8,30.21,SW,236,3.0,10.0,25,0.00,,CLR,0.00,VWS V14.01,2013-04-06 23:20:00,
2013-04-06 19:25:00,50.1,15.7,30.21,SW,215,5.0,11.0,25,0.00,,CLR,0.00,VWS V14.01,2013-04-06 23:25:00,
2013-04-06 19:30:00,50.0,15.6,30.20,ESE,117,7.0,11.0,25,0.00,,CLR,0.00,VWS V14.01,2013-04-06 23:30:00,
2013-04-06 19:35:00,49.8,16.3,30.20,South,176,4.0,9.0,26,0.00,,CLR,0.00,VWS V14.01,2013-04-06 23:35:00,
2013-04-06 19:40:00,49.6,15.2,30.20,ESE,115,2.0,9.0,25,0.00,,CLR,0.00,VWS V14.01,2013-04-06 23:40:00,
2013-04-06 19:45:00,49.4,16.0,30.20,SSW,210,2.0,9.0,26,0.00,,CLR,0.00,VWS V14.01,2013-04-06 23:45:00,
2013-04-06 19:50:00,49.1,15.7,30.20,SW,226,2.0,9.0,26,0.00,,CLR,0.00,VWS V14.01,2013-04-06 23:50:00,
2013-04-06 19:55:00,49.1,13.9,30.20,South,188,7.0,10.0,24,0.00,,CLR,0.00,VWS V14.01,2013-04-06 23:55:00,
2013-04-06 20:00:00,49.0,13.8,30.20,SSW,207,3.0,5.0,24,0.00,,CLR,0.00,VWS V14.01,2013-04-07 00:00:00,
2013-04-06 20:05:00,48.9,13.7,30.20,WSW,254,3.0,10.0,24,0.00,,CLR,0.00,VWS V14.01,2013-04-07 00:05:00,
2013-04-06 20:10:00,48.8,12.7,30.20,SW,224,6.0,10.0,23,0.00,,CLR,0.00,VWS V14.01,2013-04-07 00:10:00,
2013-04-06 20:15:00,48.8,12.7,30.20,WSW,240,4.0,10.0,23,0.00,,CLR,0.00,VWS V14.01,2013-04-07 00:15:00,
2013-04-06 20:20:00,48.7,12.6,30.20,SW,219,4.0,10.0,23,0.00,,CLR,0.00,VWS V14.01,2013-04-07 00:20:00,
2013-04-06 20:25:00,48.6,12.5,30.20,SW,236,2.0,10.0,23,0.00,,CLR,0.00,VWS V14.01,2013-04-07 00:25:00,
2013-04-06 20:30:00,48.7,11.6,30.20,SW,214,3.0,5.0,22,0.00,,CLR,0.00,VWS V14.01,2013-04-07 00:30:00,
2013-04-06 20:35:00,48.9,12.8,30.20,SW,222,3.0,6.0,23,0.00,,CLR,0.00,VWS V14.01,2013-04-07 00:35:00,
2013-04-06 20:40:00,48.8,12.7,30.20,SW,232,2.0,9.0,23,0.00,,CLR,0.00,VWS V14.01,2013-04-07 00:40:00,
2013-04-06 20:45:00,49.0,12.8,30.20,SSW,207,2.0,12.0,23,0.00,,CLR,0.00,VWS V14.01,2013-04-07 00:45:00,
2013-04-06 20:50:00,49.0,11.8,30.20,SSW,197,6.0,12.0,22,0.00,,CLR,0.00,VWS V14.01,2013-04-07 00:50:00,
2013-04-06 20:55:00,48.9,12.8,30.20,SW,219,3.0,12.0,23,0.00,,CLR,0.00,VWS V14.01,2013-04-07 00:55:00,
2013-04-06 21:00:00,48.9,12.8,30.20,SW,229,4.0,6.0,23,0.00,,CLR,0.00,VWS V14.01,2013-04-07 01:00:00,
2013-04-06 21:05:00,48.9,12.8,30.20,SW,233,3.0,8.0,23,0.00,,CLR,0.00,VWS V14.01,2013-04-07 01:05:00,
2013-04-06 21:11:00,49.0,11.8,30.19,SW,235,8.0,13.0,22,0.00,,CLR,0.00,VWS V14.01,2013-04-07 01:11:00,
2013-04-06 21:16:00,49.1,11.9,30.20,West,262,5.0,13.0,22,0.00,,CLR,0.00,VWS V14.01,2013-04-07 01:16:00,
2013-04-06 21:21:00,49.1,12.9,30.20,SW,228,13.0,13.0,23,0.00,,CLR,0.00,VWS V14.01,2013-04-07 01:21:00,
2013-04-06 21:26:00,49.1,11.9,30.20,SW,214,6.0,13.0,22,0.00,,CLR,0.00,VWS V14.01,2013-04-07 01:26:00,
2013-04-06 21:31:00,48.9,12.8,30.20,SSW,210,3.0,6.0,23,0.00,,CLR,0.00,VWS V14.01,2013-04-07 01:31:00,
2013-04-06 21:36:00,48.7,13.5,30.20,North,355,1.0,6.0,24,0.00,,CLR,0.00,VWS V14.01,2013-04-07 01:36:00,
2013-04-06 21:41:00,48.5,13.4,30.20,West,271,3.0,6.0,24,0.00,,CLR,0.00,VWS V14.01,2013-04-07 01:41:00,
2013-04-06 21:46:00,48.5,13.4,30.20,WSW,240,2.0,7.0,24,0.00,,CLR,0.00,VWS V14.01,2013-04-07 01:46:00,
2013-04-06 21:51:00,48.5,13.4,30.20,West,280,1.0,8.0,24,0.00,,CLR,0.00,VWS V14.01,2013-04-07 01:51:00,
2013-04-06 21:56:00,48.5,14.3,30.20,SW,218,2.0,8.0,25,0.00,,CLR,0.00,VWS V14.01,2013-04-07 01:56:00,
2013-04-06 22:02:00,48.4,14.2,30.20,WSW,248,4.0,6.0,25,0.00,,CLR,0.00,VWS V14.01,2013-04-07 02:02:00,
2013-04-06 22:07:00,48.5,14.3,30.20,SSW,200,4.0,9.0,25,0.00,,CLR,0.00,VWS V14.01,2013-04-07 02:07:00,
2013-04-06 22:12:00,48.5,15.2,30.20,East,101,4.0,9.0,26,0.00,,CLR,0.00,VWS V14.01,2013-04-07 02:12:00,
2013-04-06 22:17:00,48.5,15.2,30.20,SW,224,4.0,9.0,26,0.00,,CLR,0.00,VWS V14.01,2013-04-07 02:17:00,
2013-04-06 22:22:00,48.5,15.2,30.20,WSW,238,4.0,11.0,26,0.00,,CLR,0.00,VWS V14.01,2013-04-07 02:22:00,
2013-04-06 22:27:00,48.4,15.1,30.19,WSW,239,1.0,11.0,26,0.00,,CLR,0.00,VWS V14.01,2013-04-07 02:27:00,
2013-04-06 22:32:00,48.3,15.9,30.19,South,191,2.0,5.0,27,0.00,,CLR,0.00,VWS V14.01,2013-04-07 02:32:00,
2013-04-06 22:37:00,48.3,15.9,30.20,SW,215,2.0,12.0,27,0.00,,CLR,0.00,VWS V14.01,2013-04-07 02:37:00,
2013-04-06 22:42:00,48.3,15.9,30.19,SSE,153,4.0,12.0,27,0.00,,CLR,0.00,VWS V14.01,2013-04-07 02:42:00,
2013-04-06 22:47:00,48.3,15.9,30.19,West,260,7.0,12.0,27,0.00,,CLR,0.00,VWS V14.01,2013-04-07 02:47:00,
2013-04-06 22:52:00,48.3,16.7,30.19,SW,229,6.0,12.0,28,0.00,,CLR,0.00,VWS V14.01,2013-04-07 02:52:00,
2013-04-06 22:57:00,48.2,16.6,30.19,SSW,197,6.0,13.0,28,0.00,,CLR,0.00,VWS V14.01,2013-04-07 02:57:00,
2013-04-06 23:02:00,48.1,16.5,30.19,SW,231,10.0,10.0,28,0.00,,CLR,0.00,VWS V14.01,2013-04-07 03:02:00,
2013-04-06 23:07:00,48.0,16.5,30.18,WSW,238,10.0,14.0,28,0.00,,CLR,0.00,VWS V14.01,2013-04-07 03:07:00,
2013-04-06 23:12:00,48.1,15.7,30.18,SW,218,7.0,15.0,27,0.00,,CLR,0.00,VWS V14.01,2013-04-07 03:12:00,
2013-04-06 23:17:00,48.3,15.9,30.18,SW,235,9.0,15.0,27,0.00,,CLR,0.00,VWS V14.01,2013-04-07 03:17:00,
2013-04-06 23:22:00,48.4,16.8,30.18,SW,225,4.0,15.0,28,0.00,,CLR,0.00,VWS V14.01,2013-04-07 03:22:00,
2013-04-06 23:27:00,48.4,16.8,30.18,SSW,208,10.0,17.0,28,0.00,,CLR,0.00,VWS V14.01,2013-04-07 03:27:00,
2013-04-06 23:32:00,48.4,16.8,30.18,SW,229,6.0,17.0,28,0.00,,CLR,0.00,VWS V14.01,2013-04-07 03:32:00,
2013-04-06 23:37:00,48.3,17.5,30.18,WSW,242,10.0,17.0,29,0.00,,CLR,0.00,VWS V14.01,2013-04-07 03:37:00,
2013-04-06 23:42:00,48.3,17.5,30.18,WSW,238,6.0,22.0,29,0.00,,CLR,0.00,VWS V14.01,2013-04-07 03:42:00,
2013-04-06 23:47:00,48.2,17.5,30.18,SW,229,12.0,22.0,29,0.00,,CLR,0.00,VWS V14.01,2013-04-07 03:47:00,
2013-04-06 23:52:00,48.1,17.4,30.18,SW,226,9.0,22.0,29,0.00,,CLR,0.00,VWS V14.01,2013-04-07 03:52:00,
2013-04-06 23:57:00,48.0,18.1,30.17,WSW,243,11.0,22.0,30,0.00,,CLR,0.00,VWS V14.01,2013-04-07 03:57:00,